KE4EST Weather Reports


time (UTC)temp
F
wind
direction
speed
knots
gust
knots
rain 1hr
in
rain 24hr
in
rain mn
in
humidity
%
barometer
mb
20260505214201 75 115 0.9 0.9 0.00 0.00 0.00 44 1013.5
20260505213658 76 125 0.0 0.9 0.00 0.00 0.00 40 1013.5
20260505213155 76 92 0.0 0.0 0.00 0.00 0.00 41 1013.5
20260505212651 76 105 1.7 1.7 0.00 0.00 0.00 39 1013.4
20260505212148 76 102 0.9 0.9 0.00 0.00 0.00 38 1013.4
20260505211645 76 87 0.9 0.9 0.00 0.00 0.00 39 1013.3
20260505211142 76 104 0.9 0.9 0.00 0.00 0.00 38 1013.5
20260505210639 77 114 0.9 0.9 0.00 0.00 0.00 38 1013.5
20260505210135 78 93 0.0 0.0 0.00 0.00 0.00 37 1013.2
20260505205632 78 124 0.9 1.7 0.00 0.00 0.00 37 1013.4
20260505205130 76 62 0.9 1.7 0.00 0.00 0.00 37 1013.5
20260505204622 76 97 1.7 1.7 0.00 0.00 0.00 39 1013.6
20260505204120 76 216 2.6 2.6 0.00 0.00 0.00 36 1013.5
20260505203615 77 126 0.0 0.0 0.00 0.00 0.00 37 1013.4
20260505203113 78 154 1.7 1.7 0.00 0.00 0.00 37 1013.5
20260505202603 79 122 0.9 0.9 0.00 0.00 0.00 36 1013.5
20260505202059 79 165 0.0 0.9 0.00 0.00 0.00 39 1013.6
20260505201556 79 71 0.0 0.9 0.00 0.00 0.00 39 1013.7
20260505201054 79 142 1.7 2.6 0.00 0.00 0.00 38 1013.6
20260505200551 77 117 0.0 0.9 0.00 0.00 0.00 39 1013.6
20260505200048 77 133 0.9 1.7 0.00 0.00 0.00 40 1013.7
20260505195544 79 133 0.9 0.9 0.00 0.00 0.00 38 1013.7
20260505195041 79 252 0.9 1.7 0.00 0.00 0.00 36 1013.8
20260505194533 78 86 0.0 0.0 0.00 0.00 0.00 38 1013.9
20260505194028 80 105 0.0 0.9 0.00 0.00 0.00 37 1013.9
20260505193526 79 99 0.0 0.0 0.00 0.00 0.00 37 1013.9
20260505193023 79 98 0.0 0.9 0.00 0.00 0.00 36 1014.2
20260505192521 79 93 0.9 0.9 0.00 0.00 0.00 36 1014.2
20260505192019 79 141 0.9 0.9 0.00 0.00 0.00 33 1014.1
20260505191517 78 79 0.0 0.0 0.00 0.00 0.00 35 1014.4
20260505191015 78 239 1.7 1.7 0.00 0.00 0.00 36 1014.3
20260505190509 78 135 1.7 1.7 0.00 0.00 0.00 33 1014.4
20260505190005 78 98 0.0 0.9 0.00 0.00 0.00 35 1014.6
20260505185502 77 175 1.7 1.7 0.00 0.00 0.00 34 1014.8
20260505184958 77 122 0.9 0.9 0.00 0.00 0.00 36 1014.9
20260505184455 76 118 1.7 1.7 0.00 0.00 0.00 36 1014.8
20260505183952 77 222 1.7 2.6 0.00 0.00 0.00 33 1015.1
20260505183449 78 142 1.7 1.7 0.00 0.00 0.00 35 1014.9
20260505182945 77 102 0.0 0.9 0.00 0.00 0.00 35 1015.0
20260505182442 77 117 0.9 1.7 0.00 0.00 0.00 33 1015.0
20260505181938 77 97 0.9 0.9 0.00 0.00 0.00 35 1015.3
20260505181436 77 146 1.7 1.7 0.00 0.00 0.00 35 1015.3
20260505180933 76 123 0.9 0.9 0.00 0.00 0.00 37 1015.4
20260505180429 76 135 1.7 1.7 0.00 0.00 0.00 33 1015.4
20260505175926 76 155 0.9 1.7 0.00 0.00 0.00 35 1015.4
20260505175422 74 218 0.9 1.7 0.00 0.00 0.00 35 1015.5
20260505174918 74 151 1.7 2.6 0.00 0.00 0.00 35 1015.5
20260505174416 75 169 0.9 1.7 0.00 0.00 0.00 36 1015.7
20260505173912 75 209 1.7 1.7 0.00 0.00 0.00 39 1015.6
20260505173409 73 90 0.0 0.0 0.00 0.00 0.00 42 1016.1
20260505172906 73 96 0.9 0.9 0.00 0.00 0.00 43 1016.3
20260505172404 74 117 0.9 1.7 0.00 0.00 0.00 44 1016.0
20260505171903 74 193 0.9 1.7 0.00 0.00 0.00 41 1016.1
20260505171400 74 151 0.9 0.9 0.00 0.00 0.00 45 1016.1
20260505170857 74 228 0.9 1.7 0.00 0.00 0.00 45 1016.3
20260505170354 74 204 2.6 2.6 0.00 0.00 0.00 42 1016.2
20260505165849 73 150 0.9 0.9 0.00 0.00 0.00 41 1016.1
20260505165345 74 97 0.9 0.9 0.00 0.00 0.00 44 1016.1
20260505164841 74 86 0.0 0.0 0.00 0.00 0.00 44 1016.3
20260505164337 74 149 1.7 1.7 0.00 0.00 0.00 46 1016.3
20260505163836 75 84 0.0 0.0 0.00 0.00 0.00 42 1016.4
20260505163334 74 100 0.9 0.9 0.00 0.00 0.00 48 1016.6
20260505162832 74 215 0.9 1.7 0.00 0.00 0.00 46 1016.5
20260505162328 73 114 0.9 1.7 0.00 0.00 0.00 50 1016.7
20260505161825 73 105 0.0 0.0 0.00 0.00 0.00 47 1016.1
20260505161323 71 95 0.0 0.0 0.00 0.00 0.00 52 1016.6
20260505160820 70 120 0.9 0.9 0.00 0.00 0.00 51 1016.3
20260505160318 71 204 1.7 1.7 0.00 0.00 0.00 48 1016.4
20260505153256 71 80 0.0 0.0 0.00 0.00 0.00 52 1016.3
20260505152754 71 90 0.0 0.0 0.00 0.00 0.00 52 1016.8
20260505152249 71 120 0.0 0.0 0.00 0.00 0.00 53 1016.5
20260505151744 69 68 0.0 0.0 0.00 0.00 0.00 52 1016.7
20260505151242 68 114 0.9 0.9 0.00 0.00 0.00 58 1016.9
20260505150738 68 85 0.0 0.9 0.00 0.00 0.00 51 1017.1
20260505150235 68 78 0.0 0.9 0.00 0.00 0.00 57 1016.6
20260505140200 62 79 0.0 0.9 0.00 0.00 0.00 71 1016.7
20260505130124 54 86 0.0 0.0 0.00 0.00 0.00 84 1016.5
20260505124614 52 88 0.0 0.0 0.00 0.00 0.00 90 1016.3
20260505124110 51 89 0.0 0.0 0.00 0.00 0.00 92 1016.3
20260505123606 51 89 0.0 0.0 0.00 0.00 0.00 94 1016.5
20260505123103 50 90 0.0 0.0 0.00 0.00 0.00 96 1016.3
20260505122559 50 90 0.0 0.0 0.00 0.00 0.00 97 1016.1
20260505122056 49 90 0.0 0.0 0.00 0.00 0.00 97 1016.2
20260505121553 48 90 0.0 0.0 0.00 0.00 0.00 97 1016.2
20260505121050 48 90 0.0 0.0 0.00 0.00 0.00 98 1016.2
20260505120546 48 90 0.0 0.0 0.00 0.00 0.00 98 1016.1
20260505120042 47 90 0.0 0.0 0.00 0.00 0.00 98 1016.0
20260505115537 47 90 0.0 0.0 0.00 0.00 0.00 98 1016.1
20260505115034 46 90 0.0 0.0 0.00 0.00 0.00 99 1016.2
20260505114531 46 90 0.0 0.0 0.00 0.00 0.00 99 1016.2
20260505114027 46 90 0.0 0.0 0.00 0.00 0.00 98 1016.0
20260505113524 46 90 0.0 0.0 0.00 0.00 0.00 98 1015.6
20260505113020 45 92 0.0 0.0 0.00 0.00 0.00 98 1015.6
20260505112516 45 84 0.0 0.0 0.00 0.00 0.00 98 1015.5
20260505112015 45 88 0.0 0.0 0.00 0.00 0.00 98 1015.7
20260505111508 45 88 0.0 0.0 0.00 0.00 0.00 98 1015.6
20260505111005 45 89 0.0 0.0 0.00 0.00 0.00 98 1015.5
20260505110502 45 82 0.0 0.0 0.00 0.00 0.00 98 1015.4
20260505101933 45 89 0.0 0.0 0.00 0.00 0.00 98 1015.5
20260505101427 45 89 0.0 0.0 0.00 0.00 0.00 98 1015.6
20260505100923 45 90 0.0 0.0 0.00 0.00 0.00 98 1015.7
20260505100420 45 90 0.0 0.0 0.00 0.00 0.00 98 1015.2
20260505095916 45 90 0.0 0.0 0.00 0.00 0.00 98 1015.5
20260505095413 44 90 0.0 0.0 0.00 0.00 0.00 98 1015.4
20260505094909 44 90 0.0 0.0 0.00 0.00 0.00 98 1015.3
20260505094406 44 90 0.0 0.0 0.00 0.00 0.00 98 1015.3
20260505093902 45 90 0.0 0.0 0.00 0.00 0.00 98 1015.4
20260505093359 45 90 0.0 0.0 0.00 0.00 0.00 98 1015.2
20260505092856 44 90 0.0 0.0 0.00 0.00 0.00 98 1015.3
20260505092354 44 90 0.0 0.0 0.00 0.00 0.00 98 1015.3
20260505091851 44 90 0.0 0.0 0.00 0.00 0.00 98 1015.3
20260505091349 45 91 0.0 0.0 0.00 0.00 0.00 98 1015.3
20260505090847 45 91 0.0 0.0 0.00 0.00 0.00 98 1015.4
20260505090345 45 92 0.0 0.0 0.00 0.00 0.00 98 1015.5
20260505085842 45 96 0.0 0.0 0.00 0.00 0.00 98 1015.5
20260505085340 45 84 0.0 0.0 0.00 0.00 0.00 98 1015.7
20260505084837 45 84 0.0 0.0 0.00 0.00 0.00 98 1015.4
20260505084336 45 83 0.0 0.0 0.00 0.00 0.00 98 1015.5
20260505083833 45 88 0.0 0.0 0.00 0.00 0.00 98 1015.4
20260505083330 45 88 0.0 0.0 0.00 0.00 0.00 98 1015.6
20260505082826 45 88 0.0 0.0 0.00 0.00 0.00 98 1015.4
20260505082323 45 88 0.0 0.0 0.00 0.00 0.00 98 1015.4
20260505081820 45 88 0.0 0.0 0.00 0.00 0.00 98 1015.4
20260505081316 46 88 0.0 0.0 0.00 0.00 0.00 97 1015.5
20260505080813 46 88 0.0 0.0 0.00 0.00 0.00 97 1015.5
20260505080309 46 88 0.0 0.0 0.00 0.00 0.00 97 1015.5
20260505075804 46 88 0.0 0.0 0.00 0.00 0.00 97 1015.6
20260505075304 46 88 0.0 0.0 0.00 0.00 0.00 97 1015.7
20260505074759 46 88 0.0 0.0 0.00 0.00 0.00 97 1015.5
20260505074256 46 88 0.0 0.0 0.00 0.00 0.00 97 1015.4
20260505073753 46 88 0.0 0.0 0.00 0.00 0.00 97 1015.7
20260505073251 46 88 0.0 0.0 0.00 0.00 0.00 97 1015.5
20260505072748 46 95 0.0 0.0 0.00 0.00 0.00 97 1015.4
20260505072244 46 95 0.0 0.0 0.00 0.00 0.00 97 1015.7
20260505071740 46 86 0.0 0.0 0.00 0.00 0.00 97 1015.6
20260505071237 46 86 0.0 0.0 0.00 0.00 0.00 96 1015.6
20260505070734 47 86 0.0 0.0 0.00 0.00 0.00 96 1015.5
20260505070230 47 86 0.0 0.0 0.00 0.00 0.00 96 1015.6
20260505065726 47 86 0.0 0.0 0.00 0.00 0.00 96 1015.6
20260505065223 47 85 0.0 0.0 0.00 0.00 0.00 96 1015.5
20260505064720 47 84 0.0 0.0 0.00 0.00 0.00 96 1015.6
20260505064218 47 83 0.0 0.0 0.00 0.00 0.00 96 1015.4
20260505063715 47 85 0.0 0.0 0.00 0.00 0.00 96 1015.6
20260505063211 47 85 0.0 0.0 0.00 0.00 0.00 95 1015.5
20260505062707 48 85 0.0 0.0 0.00 0.00 0.00 95 1015.4
20260505062206 48 85 0.0 0.0 0.00 0.00 0.00 95 1015.6
20260505061702 48 85 0.0 0.0 0.00 0.00 0.00 95 1015.5
20260505061200 48 85 0.0 0.0 0.00 0.00 0.00 95 1015.7
20260505060657 48 85 0.0 0.0 0.00 0.00 0.00 94 1015.7
20260505060154 48 85 0.0 0.0 0.00 0.00 0.00 94 1015.6
20260505055649 48 83 0.0 0.0 0.00 0.00 0.00 94 1015.4
20260505055146 49 83 0.0 0.0 0.00 0.00 0.00 94 1015.6
20260505054643 49 83 0.0 0.0 0.00 0.00 0.00 94 1015.8
20260505054141 49 86 0.0 0.0 0.00 0.00 0.00 94 1015.4
20260505053639 49 86 0.0 0.0 0.00 0.00 0.00 94 1015.6
20260505053135 49 88 0.0 0.0 0.00 0.00 0.00 94 1015.7
20260505052632 49 85 0.0 0.0 0.00 0.00 0.00 93 1015.8
20260505052130 49 85 0.0 0.0 0.00 0.00 0.00 93 1015.8
20260505051626 50 85 0.0 0.0 0.00 0.00 0.00 92 1015.5
20260505051125 50 85 0.0 0.0 0.00 0.00 0.00 92 1015.6
20260505050622 50 85 0.0 0.0 0.00 0.00 0.00 92 1015.7
20260505050120 50 86 0.0 0.0 0.00 0.00 0.00 92 1015.6
20260505041550 52 86 0.0 0.0 0.00 0.00 0.00 89 1015.8
20260505041047 52 85 0.0 0.0 0.00 0.00 0.00 89 1015.6
20260505040544 52 85 0.0 0.0 0.00 0.00 0.00 89 1015.6
20260505040042 52 86 0.0 0.0 0.00 0.00 0.00 88 1015.6
20260505035537 52 85 0.0 0.0 0.00 0.00 0.00 88 1015.5
20260505035034 52 86 0.0 0.0 0.00 0.00 0.00 87 1015.6
20260505034531 53 86 0.0 0.0 0.00 0.00 0.00 87 1015.5
20260505034028 53 86 0.0 0.0 0.00 0.00 0.00 87 1015.5
20260505033525 53 86 0.0 0.0 0.00 0.00 0.00 87 1015.7
20260505033023 53 86 0.0 0.0 0.00 0.00 0.00 87 1015.5
20260505032520 53 86 0.0 0.0 0.00 0.00 0.00 86 1015.5
20260505032017 53 87 0.0 0.0 0.00 0.00 0.00 87 1015.6
20260505031514 53 88 0.0 0.0 0.00 0.00 0.00 86 1015.6
20260505031010 53 87 0.0 0.0 0.00 0.00 0.00 86 1015.5
20260505030507 54 87 0.0 0.0 0.00 0.00 0.00 85 1015.6
20260505030003 54 87 0.0 0.0 0.00 0.00 0.00 83 1015.5
20260505025459 55 87 0.0 0.0 0.00 0.00 0.00 83 1015.5
20260505024959 55 87 0.0 0.0 0.00 0.00 0.00 83 1015.8
20260505024455 55 87 0.0 0.0 0.00 0.00 0.00 82 1015.8
20260505023952 55 87 0.0 0.0 0.00 0.00 0.00 81 1015.5
20260505023449 55 87 0.0 0.0 0.00 0.00 0.00 80 1015.6
20260505022946 55 87 0.0 0.0 0.00 0.00 0.00 81 1015.5
20260505022444 56 87 0.0 0.0 0.00 0.00 0.00 79 1015.4
20260505021941 56 87 0.0 0.0 0.00 0.00 0.00 79 1015.5
20260505021437 56 87 0.0 0.0 0.00 0.00 0.00 79 1015.5
20260505020933 57 87 0.0 0.0 0.00 0.00 0.00 78 1015.5
20260505020428 57 87 0.0 0.0 0.00 0.00 0.00 77 1015.4
20260505015925 57 87 0.0 0.0 0.00 0.00 0.00 77 1015.4
20260505015423 57 90 0.0 0.0 0.00 0.00 0.00 76 1015.5
20260505014920 57 86 0.0 0.0 0.00 0.00 0.00 76 1015.3
20260505014416 58 85 0.0 0.0 0.00 0.00 0.00 74 1015.2
20260505013914 58 84 0.0 0.0 0.00 0.00 0.00 74 1015.2
20260505013410 59 87 0.0 0.0 0.00 0.00 0.00 73 1015.3
20260505012909 59 86 0.0 0.0 0.00 0.00 0.00 72 1015.0
20260505012406 59 87 0.0 0.0 0.00 0.00 0.00 71 1015.1
20260505011902 60 87 0.0 0.0 0.00 0.00 0.00 70 1014.9
20260505011359 60 88 0.0 0.0 0.00 0.00 0.00 69 1015.1
20260505010855 61 90 0.0 0.0 0.00 0.00 0.00 67 1015.0
20260505010351 61 90 0.0 0.0 0.00 0.00 0.00 66 1014.9
20260505005847 62 89 0.0 0.0 0.00 0.00 0.00 65 1015.0
20260505005344 62 89 0.0 0.0 0.00 0.00 0.00 64 1014.9
20260505004842 63 90 0.0 0.0 0.00 0.00 0.00 63 1015.0
20260505004338 64 90 0.0 0.0 0.00 0.00 0.00 62 1014.8
20260505003836 64 90 0.0 0.0 0.00 0.00 0.00 61 1014.8
20260505003333 65 94 0.0 0.0 0.00 0.00 0.00 57 1014.7
20260505002828 66 96 0.0 0.0 0.00 0.00 0.00 56 1014.5
20260505002326 66 97 0.0 0.0 0.00 0.00 0.00 54 1014.6
20260505001824 67 104 0.0 0.0 0.00 0.00 0.00 53 1014.5
20260505001321 67 100 0.0 0.0 0.00 0.00 0.00 53 1014.5
20260505000818 68 103 0.0 0.0 0.00 0.00 0.00 52 1014.7
20260505000316 68 96 0.0 0.0 0.00 0.00 0.00 51 1014.5
20260504235812 69 101 0.0 0.0 0.00 0.00 0.00 50 1014.7
20260504235309 69 100 0.0 0.0 0.00 0.00 0.00 49 1014.5
20260504234806 69 126 0.9 0.9 0.00 0.00 0.00 48 1014.5
20260504234304 70 122 0.0 0.0 0.00 0.00 0.00 48 1014.5
20260504233800 70 101 0.9 0.9 0.00 0.00 0.00 47 1014.4
20260504233255 71 124 0.0 0.9 0.00 0.00 0.00 46 1014.4
20260504232752 71 149 0.9 1.7 0.00 0.00 0.00 46 1014.4
20260504232249 71 99 0.0 0.0 0.00 0.00 0.00 47 1014.3
20260504231746 71 99 0.0 0.0 0.00 0.00 0.00 46 1014.4
20260504231243 71 120 0.9 0.9 0.00 0.00 0.00 46 1014.4
20260504230739 71 126 0.0 0.9 0.00 0.00 0.00 45 1014.4
20260504230237 71 102 0.0 0.0 0.00 0.00 0.00 45 1014.3
20260504225736 71 107 0.0 0.0 0.00 0.00 0.00 44 1014.3
20260504225232 71 118 0.0 0.9 0.00 0.00 0.00 43 1014.1
20260504224729 71 111 0.9 0.9 0.00 0.00 0.00 42 1014.2
20260504224226 71 100 0.0 0.0 0.00 0.00 0.00 40 1014.3
20260504223722 71 109 0.0 0.9 0.00 0.00 0.00 39 1014.4
20260504223218 72 98 0.0 0.0 0.00 0.00 0.00 38 1014.3
20260504222715 72 127 0.9 0.9 0.00 0.00 0.00 38 1014.4
20260504222212 72 146 0.9 0.9 0.00 0.00 0.00 37 1014.2
20260504221709 73 117 0.0 0.9 0.00 0.00 0.00 35 1014.3
20260504221206 73 99 0.9 0.9 0.00 0.00 0.00 35 1014.2
20260504220703 74 137 0.9 0.9 0.00 0.00 0.00 36 1014.4
20260504220201 74 154 0.9 1.7 0.00 0.00 0.00 36 1014.3
20260504215656 74 95 0.0 0.0 0.00 0.00 0.00 36 1014.3
20260504215154 75 197 1.7 2.6 0.00 0.00 0.00 34 1014.2
20260504214649 75 99 0.0 0.0 0.00 0.00 0.00 38 1014.1